Location: Albany
(35.0170°S, 117.8920°E)
Time: 17:25:20
(UTC+08:00)

Explorer 11/Cluster Stage 4 - Pass Details

Date: 26 January 2021
Orbit: 467 x 1257 km, 28.8° (Epoch: 02 March)

Event Time Altitude Azimuth Distance (km) Brightness Sun altitude
Rises 06:33:09 0° 320° (NW) 3,962 9.7 13.0°
Reaches altitude 10° 06:36:50 10° 334° (NNW) 2,879 9.1 13.8°
Maximum altitude 06:41:53 21° 20° (NNE) 1,983 8.8 14.8°
Drops below altitude 10° 06:46:17 10° 67° (ENE) 2,469 10.2 15.7°
Sets 06:49:10 0° 83° (E) 3,257 11.2 16.2°
